OBJECT U, 63228

Orbit data source: Space-Track

You're viewing an Uncataloged Satellite

Recently launched and/or uncataloged satellites may have evolving metadata. Metadata may include but not limited to: Owner, Maufacturer, Bus, Motor, and Mission.

OBJECT U, 63228 is a satellite in SSO that was launched on Sat, 15 Mar 2025 UTC via an FALCON 9 launch vehicle from the Air Force Western Test Range (AFWTR). Unknown objects in Earth's orbit typically refer to objects detected orbiting the Earth but have not yet been identified or cataloged. These objects could be anything from previously untracked satellites, spent rocket stages, debris from satellite collisions, or even natural meteoroids temporarily captured by Earth's gravity.

Loading next visibility...
Identifier
63228, 2025-052U
Orbit
SSO
Country
Flag of TBDTBD
Related business
None
Manufacturer
Unknown
Mission
Operational Commercial Technology
Bus & Motor
Unknown
Mass
Unknown
Launch date (UTC)
2025-03-15 (1 year ago)
Launch vehicle
FALCON 9
Launch site
Air Force Western Test Range (AFWTR)
Object type
Unknown
Shape & HBR
Box, 1.1 m
Radar Cross Section
0.054 m², Medium (>0.1 m² and < 1m²)

Expand to show TLE details & history
Last TLE update: 13 hours ago

TLE from 13 hours ago
0 OBJECT U
1 63228U 25052U   26166.65097826  .00005146  00000-0  21804-3 0  9993
2 63228  97.3927  59.4332 0006170 139.6946 220.4750 15.23569987 69637
Epoch: 2026-06-15T15:37Z
TLE epoch observation values (Epoch: 2026-06-15T15:37:24.521Z)
Latitude
0.00002°
Longitude
-78.85328°
Altitude
501.406 km
Speed
7.612 km/s
True Right ascension
03h 57m 43s
True Declination
0° 00' 00"
Sunlit
Object was in daylight at epoch
Visualization orbit readout
Latitude
Unknown
Longitude
Unknown
Altitude
Unknown
Speed
Unknown
Apparent Right ascension
Unknown
Apparent Declination
Unknown
Sunlit
N/A
Visualization observer readout
Local Sidereal Time
14:48:41
Azimuth
Unknown
Elevation
Unknown
Doppler factor
Unknown
Orbital elements
Apogee altitude
496.282 km
Perigee altitude
487.804 km
Semi-major axis
6,870.18 km
Eccentricity
0.00062
Inclination
97.3927°
RAAN
59.4332°
Arg. of periapsis
139.6946°
True anomaly
220.42913°
Mean anomaly
220.475°
Eccentric anomaly
220.45206°
Mean motion
3.81146 °/min
Orbital period
94.45 mins
BSTAR
0.00021804
Loading maneuver chart data...
Computing Atmospheric mass density...
Loading historical data...
Loading historical data...
Loading historical data...
Loading historical data...
Loading historical data...
Loading historical data...
Loading historical data...

Documentation

Showing up to 5 results
|